Date String (YYYY-MM-DD hh:mm:ss) UTC,Instrument flags,absolute air pressure of the measurement (hPa),sample flow rate (lpm),inlet stack bypass flow (lpm),air temperature of the measurement (°C),ambient temperature measured by the external sensor (°C),aerosol sample conditioner tube jacket temperature (°C),OPC LED temperature (°C),internal box temperature (°C),relative humidity of the measurement (%),span deviation,mass concentration of particles derived from Lorenz-Mie calculation of OPC scattering (μg/m³),mass concentration of particles derived from Lorenz-Mie calculation of OPC scattering (μg/m³),mass concentration of particles derived from Lorenz-Mie calculation of OPC scattering (μg/m³)
DateTimeUTC,F1_M11,P_M11,Q1_M11,Q2_M11,T1_M11,T2_M11,T3_M11,T4_M11,T5_M11,U1_M11,ZSPAN_M11,X2_M11,X0_M11,X1_M11
2023-09-11 04:00:00,SystemResetWarning,0837.8,4.99,000.00,029.7,027.2,000.0,037.7,030.6,34.2,-000.4,0009.37,0014.35,0008.78
2023-09-11 04:01:00,SystemResetWarning,0837.8,4.99,000.00,029.7,027.3,000.0,037.7,030.6,34.2,-000.4,0009.39,0014.38,0008.79
2023-09-11 04:02:00,SystemResetWarning,0837.8,5.01,000.00,029.7,027.4,000.0,037.7,030.6,34.2,-000.3,0009.34,0014.29,0008.76
2023-09-11 04:03:00,SystemResetWarning,0837.8,5.01,000.00,029.7,027.4,000.0,037.8,030.7,34.2,-000.1,0009.34,0014.25,0008.77
2023-09-11 04:04:00,SystemResetWarning,0837.8,5.01,000.00,029.7,027.5,000.0,037.8,030.7,34.2,-000.1,0009.34,0014.21,0008.77
2023-09-11 04:05:00,SystemResetWarning,0837.8,5.00,000.00,029.7,027.5,000.0,037.8,030.7,34.2,-000.1,0009.37,0014.24,0008.78
2023-09-11 04:06:00,SystemResetWarning,0837.7,4.99,000.00,029.7,027.6,000.0,037.8,030.7,34.2,-000.1,0009.42,0014.31,0008.80
2023-09-11 04:07:00,SystemResetWarning,0837.8,4.99,000.00,029.7,027.6,000.0,037.8,030.8,34.1,-000.1,0009.46,0014.36,0008.83
2023-09-11 04:08:00,SystemResetWarning,0837.8,5.00,000.00,029.7,027.6,000.0,037.8,030.8,34.2,-000.1,0009.51,0014.38,0008.87
2023-09-11 04:09:00,SystemResetWarning,0837.9,5.01,000.00,029.7,027.6,000.0,037.8,030.8,34.2,-000.0,0009.50,0014.30,0008.89
2023-09-11 04:10:00,SystemResetWarning,0837.8,5.01,000.00,029.7,027.7,000.0,037.8,030.8,34.2,-000.0,0009.53,0014.36,0008.93
2023-09-11 04:11:00,SystemResetWarning,0837.8,5.00,000.00,029.7,027.7,000.0,037.9,030.8,34.1,0000.0,0009.59,0014.63,0008.98
2023-09-11 04:12:00,SystemResetWarning,0837.8,5.00,000.00,029.7,027.7,000.0,037.9,030.9,34.1,0000.3,0009.64,0014.77,0009.04
2023-09-11 04:13:00,SystemResetWarning,0837.8,4.99,000.00,029.7,027.7,000.0,037.9,030.9,34.1,0000.3,0009.71,0014.92,0009.07
2023-09-11 04:14:00,SystemResetWarning,0837.7,4.99,000.00,029.7,027.7,000.0,037.9,030.9,34.1,0000.1,0009.75,0015.22,0009.09
2023-09-11 04:15:00,SystemResetWarning,0837.7,5.00,000.00,029.7,027.7,000.0,037.9,030.9,34.1,0000.1,0009.71,0015.18,0009.10
2023-09-11 04:16:00,SystemResetWarning,0837.7,5.00,000.00,029.7,027.8,000.0,037.9,030.9,34.1,0000.2,0009.72,0015.20,0009.13
2023-09-11 04:17:00,SystemResetWarning,0837.7,5.00,000.00,029.7,027.5,000.0,037.9,030.9,34.1,0000.3,0009.71,0015.25,0009.14
2023-09-11 04:18:00,SystemResetWarning,0837.7,5.00,000.00,029.7,025.9,000.0,037.8,030.6,34.1,0000.3,0009.74,0015.40,0009.12
2023-09-11 04:19:00,SystemResetWarning,0837.7,5.00,000.00,029.6,024.8,000.0,037.7,030.3,34.2,0000.3,0009.74,0016.16,0009.11
2023-09-11 04:20:00,SystemResetWarning,0837.7,5.00,000.00,029.4,024.7,000.0,037.6,030.1,34.5,0000.3,0009.72,0016.34,0009.10
2023-09-11 04:21:00,SystemResetWarning,0837.7,5.01,000.00,029.3,024.9,000.0,037.6,029.9,34.9,0000.2,0009.75,0016.43,0009.10
2023-09-11 04:22:00,SystemResetWarning,0837.7,4.99,000.00,029.2,025.3,000.0,037.6,029.9,35.1,0000.1,0009.78,0016.40,0009.12
2023-09-11 04:23:00,SystemResetWarning,0837.7,5.02,000.00,029.3,025.6,000.0,037.6,030.1,34.9,-000.0,0009.82,0016.42,0009.12
2023-09-11 04:24:00,SystemResetWarning,0837.7,4.97,000.00,029.5,026.0,000.0,037.6,030.2,34.5,-000.1,0009.83,0016.47,0009.11
2023-09-11 04:25:00,SystemResetWarning,0837.7,5.02,000.00,029.6,026.2,000.0,037.5,030.3,34.3,0000.2,0009.77,0016.16,0009.10
2023-09-11 04:26:00,SystemResetWarning,0837.8,4.98,000.00,029.6,026.5,000.0,037.5,030.3,34.3,0000.3,0009.83,0016.22,0009.10
2023-09-11 04:27:00,SystemResetWarning,0837.7,5.00,000.00,029.6,026.7,000.0,037.6,030.3,34.2,0000.4,0009.87,0016.29,0009.13
2023-09-11 04:28:00,SystemResetWarning,0837.7,5.01,000.00,029.7,026.8,000.0,037.6,030.4,34.2,0000.4,0009.88,0016.31,0009.16
2023-09-11 04:29:00,SystemResetWarning,0837.8,5.00,000.00,029.7,027.0,000.0,037.6,030.5,34.2,0000.4,0009.90,0016.34,0009.17
2023-09-11 04:30:00,SystemResetWarning,0837.8,4.99,000.00,029.7,027.1,000.0,037.6,030.5,34.1,0000.3,0009.90,0015.86,0009.17
2023-09-11 04:31:00,SystemResetWarning,0837.8,4.99,000.00,029.7,027.2,000.0,037.7,030.5,34.1,0000.3,0009.96,0015.60,0009.21
2023-09-11 04:32:00,SystemResetWarning,0837.8,5.01,000.00,029.7,027.2,000.0,037.7,030.5,34.1,0000.5,0009.95,0015.55,0009.22
2023-09-11 04:33:00,SystemResetWarning,0837.8,5.01,000.00,029.7,027.3,000.0,037.7,030.6,34.1,0000.6,0009.87,0015.29,0009.20
2023-09-11 04:34:00,SystemResetWarning,0837.8,5.00,000.00,029.7,027.3,000.0,037.7,030.6,34.1,0000.5,0009.80,0015.11,0009.18
2023-09-11 04:35:00,SystemResetWarning,0837.7,5.00,000.00,029.7,027.4,000.0,037.7,030.6,34.0,0000.4,0009.81,0015.17,0009.19
2023-09-11 04:36:00,SystemResetWarning,0837.8,5.00,000.00,029.7,027.4,000.0,037.7,030.7,34.1,0000.2,0009.80,0015.18,0009.19
2023-09-11 04:37:00,SystemResetWarning,0837.8,5.00,000.00,029.7,027.5,000.0,037.8,030.7,34.1,0000.3,0009.77,0015.09,0009.19
2023-09-11 04:38:00,SystemResetWarning,0837.8,5.00,000.00,029.7,027.5,000.0,037.8,030.7,34.1,0000.0,0009.69,0014.92,0009.17
2023-09-11 04:39:00,SystemResetWarning,0837.8,5.00,000.00,029.7,027.5,000.0,037.8,030.7,34.2,0000.1,0009.65,0014.85,0009.12
2023-09-11 04:40:00,SystemResetWarning,0837.8,5.01,000.00,029.7,027.6,000.0,037.8,030.7,34.1,0000.1,0009.64,0014.84,0009.12
2023-09-11 04:41:00,SystemResetWarning,0837.8,5.00,000.00,029.7,027.6,000.0,037.8,030.7,34.2,0000.2,0009.63,0014.70,0009.13
2023-09-11 04:42:00,SystemResetWarning,0837.8,5.01,000.00,029.7,027.6,000.0,037.8,030.8,34.2,0000.3,0009.62,0014.72,0009.12
2023-09-11 04:43:00,SystemResetWarning,0837.7,5.00,000.00,029.7,027.6,000.0,037.8,030.8,34.2,0000.2,0009.63,0014.76,0009.12
2023-09-11 04:44:00,SystemResetWarning,0837.8,4.99,000.00,029.7,027.7,000.0,037.8,030.8,34.2,0000.1,0009.69,0014.89,0009.15
2023-09-11 04:45:00,SystemResetWarning,0837.8,4.99,000.00,029.7,027.7,000.0,037.8,030.8,34.2,0000.4,0009.71,0014.90,0009.17
2023-09-11 04:46:00,SystemResetWarning,0837.8,5.00,000.00,029.7,027.7,000.0,037.8,030.8,34.2,0000.4,0009.67,0014.71,0009.16
2023-09-11 04:47:00,SystemResetWarning,0837.8,5.00,000.00,029.7,027.7,000.0,037.8,030.8,34.2,0000.4,0009.66,0014.68,0009.16
2023-09-11 04:48:00,SystemResetWarning,0837.8,5.00,000.00,029.7,027.8,000.0,037.8,030.9,34.2,0000.1,0009.69,0014.77,0009.17
2023-09-11 04:49:00,SystemResetWarning,0837.9,4.99,000.00,029.7,027.5,000.0,037.8,030.8,34.2,0000.1,0009.74,0014.86,0009.21
2023-09-11 04:50:00,SystemResetWarning,0837.8,5.00,000.00,029.6,025.9,000.0,037.7,030.5,34.2,-000.0,0009.77,0014.86,0009.24
2023-09-11 04:51:00,SystemResetWarning,0837.8,5.00,000.00,029.5,024.8,000.0,037.6,030.3,34.4,0000.1,0009.79,0014.90,0009.28
2023-09-11 04:52:00,SystemResetWarning,0837.8,5.01,000.00,029.4,024.7,000.0,037.6,030.1,34.7,-000.1,0009.79,0014.93,0009.29
2023-09-11 04:53:00,SystemResetWarning,0837.8,4.98,000.00,029.2,024.9,000.0,037.6,029.9,35.1,-000.1,0009.85,0015.00,0009.31
2023-09-11 04:54:00,SystemResetWarning,0837.8,5.02,000.00,029.2,025.3,000.0,037.6,030.0,35.1,-000.1,0009.84,0015.01,0009.30
2023-09-11 04:55:00,SystemResetWarning,0837.8,4.98,000.00,029.4,025.6,000.0,037.5,030.1,34.7,-000.1,0009.82,0015.11,0009.27
2023-09-11 04:56:00,SystemResetWarning,0837.8,5.00,000.00,029.5,026.0,000.0,037.5,030.2,34.4,-000.3,0009.79,0015.28,0009.23
2023-09-11 04:57:00,SystemResetWarning,0837.8,5.01,000.00,029.6,026.3,000.0,037.5,030.2,34.2,-000.2,0009.76,0015.23,0009.20
2023-09-11 04:58:00,SystemResetWarning,0837.8,5.00,000.00,029.6,026.5,000.0,037.6,030.2,34.1,0000.1,0009.76,0015.27,0009.17
2023-09-11 04:59:00,SystemResetWarning,0838.0,4.99,000.00,029.6,026.7,000.0,037.6,030.2,34.1,0000.2,0009.73,0015.19,0009.12
